Tracking 29892 objects as of 21-Nov-2024
HD Live streaming from Space Station
objects crossing your sky now

SL-12 R/B(AUX MOTOR)

Track SL-12 R/B(AUX MOTOR) now!
10-day predictions


NORAD ID: 19537
Int'l Code: 1988-085G
Perigee: 707.3 km
Apogee: 18,171.0 km
Inclination: 65.1 °
Period: 329.7 minutes
Semi major axis: 15810 km
RCS: 0.8248 m2 (medium)
Launch date: September 16, 1988
Source: Commonwealth of Independent States (former USSR) (CIS)
Launch site: TYURATAM MISSILE AND SPACE COMPLEX (TTMTR)

Note: This is a ROCKET BODY
Your satellite tracking list
Your tracking list is empty




NASA's NSSDC Master Catalog

Two Line Element Set (TLE):
1 19537U 88085G   24325.56066665  .00000123  00000-0  48786-3 0  9992
2 19537  65.1082 171.2227 5522919 108.6537 316.8411  4.36715377569742
Source of the keplerian elements: AFSPC